When you browse on this site, cookies collect data to enhance your experience and personalize the content and advertising you see.
Visit our Privacy Policy to learn more. By continuing to use the site, you agree to this use of cookies and data.
  • In Latvia
  • List of Countries
  • For 7 days
  • Water Temperature
  • Weather Map
  • Weather Widgets
  • user-avatar
    Login

    Hourly Weather Zamiechow

    Today, 6 April, Monday

    Time Temperature Precipitation Wind Pressure Humidity
    00:00 +3°C° 0 mm 3 mps 755 mmHg 60%
    01:00 +3°C° 0 mm 3 mps 755 mmHg 61%
    02:00 +2°C° 0 mm 3 mps 755 mmHg 62%
    03:00 +2°C° 0 mm 3 mps 755 mmHg 64%
    04:00 +2°C° 0 mm 3 mps 755 mmHg 66%
    05:00 +1°C° 0 mm 3 mps 754 mmHg 67%
    06:00 +2°C° 0 mm 3 mps 755 mmHg 65%
    07:00 +3°C° 0 mm 3 mps 755 mmHg 62%
    08:00 +4°C° 0 mm 4 mps 755 mmHg 59%
    09:00 +7°C° 0 mm 3 mps 755 mmHg 54%
    10:00 +10°C° 0 mm 3 mps 755 mmHg 50%
    11:00 +12°C° 0 mm 3 mps 755 mmHg 45%
    12:00 +13°C° 0 mm 3 mps 755 mmHg 42%
    13:00 +15°C° 0 mm 2 mps 755 mmHg 40%
    14:00 +16°C° 0 mm 2 mps 755 mmHg 37%
    15:00 +16°C° 0 mm 2 mps 754 mmHg 38%
    16:00 +16°C° 0 mm 2 mps 754 mmHg 38%
    17:00 +16°C° 0 mm 2 mps 754 mmHg 39%
    18:00 +14°C° 0 mm 2 mps 754 mmHg 45%
    19:00 +12°C° 0 mm 2 mps 754 mmHg 51%
    20:00 +9°C° 0 mm 2 mps 754 mmHg 57%
    21:00 +8°C° 0 mm 2 mps 754 mmHg 58%
    22:00 +7°C° 0 mm 2 mps 755 mmHg 58%
    23:00 +7°C° 0 mm 2 mps 755 mmHg 58%

    Tomorrow, 7 April, Tuesday

    Time Temperature Precipitation Wind Pressure Humidity
    00:00 +6°C° 0 mm 2 mps 755 mmHg 58%
    01:00 +6°C° 0 mm 2 mps 755 mmHg 58%
    02:00 +5°C° 0 mm 2 mps 755 mmHg 58%
    03:00 +5°C° 0 mm 2 mps 755 mmHg 59%
    04:00 +5°C° 0 mm 2 mps 755 mmHg 59%
    05:00 +5°C° 0 mm 2 mps 755 mmHg 59%
    06:00 +6°C° 0 mm 2 mps 755 mmHg 57%
    07:00 +7°C° 0 mm 2 mps 755 mmHg 55%
    08:00 +8°C° 0 mm 2 mps 756 mmHg 53%
    09:00 +10°C° 0 mm 2 mps 756 mmHg 49%
    10:00 +13°C° 0 mm 2 mps 755 mmHg 44%
    11:00 +15°C° 0 mm 2 mps 755 mmHg 40%
    12:00 +16°C° 0 mm 2 mps 755 mmHg 37%
    13:00 +17°C° 0 mm 2 mps 755 mmHg 35%
    14:00 +18°C° 0 mm 2 mps 755 mmHg 33%
    15:00 +18°C° 0 mm 2 mps 754 mmHg 34%
    16:00 +18°C° 0 mm 2 mps 754 mmHg 35%
    17:00 +18°C° 0 mm 2 mps 754 mmHg 36%
    18:00 +16°C° 0 mm 1 mps 754 mmHg 42%
    19:00 +14°C° 0 mm 1 mps 754 mmHg 48%
    20:00 +11°C° 0 mm 0 mps 754 mmHg 53%
    21:00 +11°C° 0 mm 1 mps 754 mmHg 55%
    22:00 +10°C° 0 mm 1 mps 754 mmHg 56%
    23:00 +10°C° 0 mm 1 mps 754 mmHg 57%

    Day after tomorrow, 8 April, Wednesday

    Time Temperature Precipitation Wind Pressure Humidity
    00:00 +9°C° 0 mm 1 mps 754 mmHg 58%
    01:00 +9°C° 0 mm 1 mps 754 mmHg 59%
    02:00 +8°C° 0 mm 1 mps 754 mmHg 60%
    03:00 +8°C° 0 mm 1 mps 754 mmHg 60%
    04:00 +7°C° 0 mm 1 mps 754 mmHg 61%
    05:00 +7°C° 0 mm 1 mps 754 mmHg 62%
    06:00 +8°C° 0 mm 1 mps 753 mmHg 60%
    07:00 +9°C° 0 mm 1 mps 753 mmHg 58%
    08:00 +10°C° 0 mm 1 mps 753 mmHg 57%
    09:00 +13°C° 0 mm 1 mps 753 mmHg 52%
    10:00 +15°C° 0 mm 1 mps 753 mmHg 46%
    11:00 +18°C° 0 mm 1 mps 753 mmHg 41%
    12:00 +18°C° 0 mm 1 mps 752 mmHg 38%
    13:00 +19°C° 0 mm 1 mps 752 mmHg 35%
    14:00 +20°C° 0 mm 1 mps 751 mmHg 33%
    15:00 +20°C° 0 mm 1 mps 751 mmHg 33%
    16:00 +19°C° 0 mm 1 mps 750 mmHg 33%
    17:00 +19°C° 0 mm 1 mps 750 mmHg 33%
    18:00 +16°C° 0 mm 1 mps 750 mmHg 38%
    19:00 +14°C° 0 mm 1 mps 749 mmHg 42%
    20:00 +12°C° 0 mm 0 mps 749 mmHg 46%
    21:00 +12°C° 0 mm 1 mps 749 mmHg 48%
    22:00 +11°C° 0 mm 1 mps 749 mmHg 50%
    23:00 +11°C° 0 mm 1 mps 749 mmHg 52%

    9 April, Thursday

    Time Temperature Precipitation Wind Pressure Humidity
    00:00 +10°C° 0 mm 1 mps 749 mmHg 55%
    01:00 +10°C° 0 mm 1 mps 748 mmHg 57%
    02:00 +9°C° 0 mm 1 mps 748 mmHg 59%
    03:00 +9°C° 0 mm 1 mps 748 mmHg 61%
    04:00 +9°C° 0 mm 1 mps 748 mmHg 62%
    05:00 +8°C° 0 mm 1 mps 748 mmHg 64%
    06:00 +9°C° 0 mm 1 mps 747 mmHg 62%
    07:00 +11°C° 0 mm 1 mps 747 mmHg 61%
    08:00 +12°C° 0 mm 1 mps 747 mmHg 59%
    09:00 +14°C° 0 mm 2 mps 747 mmHg 53%
    10:00 +16°C° 0 mm 3 mps 747 mmHg 47%
    11:00 +17°C° 0 mm 3 mps 746 mmHg 41%
    12:00 +18°C° 0 mm 4 mps 746 mmHg 39%
    13:00 +19°C° 0 mm 4 mps 746 mmHg 38%
    14:00 +20°C° 0 mm 4 mps 745 mmHg 36%
    15:00 +19°C° 0 mm 4 mps 745 mmHg 38%
    16:00 +19°C° 0 mm 4 mps 744 mmHg 40%
    17:00 +19°C° 0 mm 4 mps 744 mmHg 42%
    18:00 +17°C° 0 mm 3 mps 744 mmHg 47%
    19:00 +14°C° 0 mm 3 mps 744 mmHg 52%
    20:00 +12°C° 0 mm 3 mps 744 mmHg 58%
    21:00 +12°C° 0 mm 3 mps 744 mmHg 60%
    22:00 +11°C° 0 mm 3 mps 744 mmHg 62%
    23:00 +10°C° 0 mm 3 mps 744 mmHg 64%

    10 April, Friday

    Time Temperature Precipitation Wind Pressure Humidity
    00:00 +10°C° 0 mm 3 mps 744 mmHg 66%
    01:00 +10°C° 0 mm 3 mps 744 mmHg 68%
    02:00 +9°C° 0 mm 2 mps 744 mmHg 70%
    03:00 +9°C° 0.1 mm 2 mps 744 mmHg 71%
    04:00 +9°C° 0.1 mm 2 mps 744 mmHg 73%
    05:00 +9°C° 0.1 mm 2 mps 744 mmHg 74%
    06:00 +10°C° 0.1 mm 3 mps 744 mmHg 77%
    07:00 +10°C° 0.1 mm 4 mps 745 mmHg 79%
    08:00 +11°C° 0.1 mm 4 mps 745 mmHg 82%
    09:00 +12°C° 0 mm 5 mps 745 mmHg 71%
    10:00 +11°C° 0 mm 6 mps 746 mmHg 60%
    11:00 +13°C° 0 mm 6 mps 746 mmHg 49%
    12:00 +14°C° 0 mm 6 mps 746 mmHg 45%
    13:00 +14°C° 0 mm 5 mps 746 mmHg 41%
    14:00 +14°C° 0 mm 5 mps 746 mmHg 37%
    15:00 +14°C° 0 mm 4 mps 746 mmHg 38%
    16:00 +14°C° 0 mm 4 mps 745 mmHg 38%
    17:00 +14°C° 0 mm 3 mps 745 mmHg 39%
    18:00 +12°C° 0 mm 3 mps 745 mmHg 45%
    19:00 +12°C° 0 mm 2 mps 746 mmHg 50%
    20:00 +10°C° 0 mm 1 mps 746 mmHg 55%
    21:00 +9°C° 0 mm 1 mps 746 mmHg 57%
    22:00 +8°C° 0 mm 1 mps 746 mmHg 58%
    23:00 +7°C° 0 mm 0 mps 746 mmHg 60%

    11 April, Saturday

    Time Temperature Precipitation Wind Pressure Humidity
    00:00 +6°C° 0 mm 0 mps 746 mmHg 61%
    01:00 +6°C° 0 mm 0 mps 746 mmHg 62%
    02:00 +6°C° 0 mm 0 mps 746 mmHg 63%
    03:00 +6°C° 0 mm 1 mps 745 mmHg 63%
    04:00 +6°C° 0 mm 1 mps 745 mmHg 64%
    05:00 +6°C° 0 mm 1 mps 745 mmHg 64%
    06:00 +7°C° 0 mm 1 mps 745 mmHg 62%
    07:00 +8°C° 0 mm 1 mps 745 mmHg 60%
    08:00 +10°C° 0 mm 1 mps 745 mmHg 58%
    09:00 +11°C° 0 mm 1 mps 744 mmHg 52%
    10:00 +13°C° 0 mm 2 mps 744 mmHg 46%
    11:00 +15°C° 0 mm 2 mps 744 mmHg 40%
    12:00 +16°C° 0 mm 2 mps 743 mmHg 40%
    13:00 +17°C° 0 mm 3 mps 743 mmHg 40%
    14:00 +18°C° 0 mm 3 mps 742 mmHg 40%
    15:00 +18°C° 0 mm 3 mps 741 mmHg 45%
    16:00 +18°C° 0 mm 3 mps 741 mmHg 50%
    17:00 +17°C° 0 mm 4 mps 740 mmHg 55%
    18:00 +15°C° 0 mm 4 mps 740 mmHg 56%
    19:00 +14°C° 0 mm 4 mps 740 mmHg 57%
    20:00 +13°C° 0 mm 4 mps 740 mmHg 58%
    21:00 +13°C° 0 mm 4 mps 739 mmHg 59%
    22:00 +13°C° 0 mm 5 mps 739 mmHg 60%
    23:00 +13°C° 0 mm 6 mps 739 mmHg 62%
    Show more